Regional Weather Roundup
Issued by NWS Wakefield, VA

Home | Current Version | Previous Version | Graphics & Text | Print | Product List | Glossary On
Versions: 1 2 3 4 5 6 7 8 9 10 11 12 13 14 15 16 17 18 19 20 21 22 23 24 25 26 27
000
ASUS41 KAKQ 311415
RWRAKQ

REGIONAL WEATHER ROUNDUP
NATIONAL WEATHER SERVICE WAKEFIELD VA
1000 AM EDT TUE MAY 31 2016

Note: "fair" indicates few or no clouds below 12,000 feet with no
significant weather and/or obstructions to visibility. * = Denotes
station may not report precipitation (e.g., rain,snow,etc.),
thunder or fog.

VAZ042-051-052>054-056-311500-
NORTHERN VIRGINIA

CITY           SKY/WX    TMP DP  RH WIND       PRES   REMARKS
WASH NATIONAL  CLOUDY    76  68  76 CALM      29.99S
DULLES         FAIR      78  65  63 N6        29.99S
FORT BELVOIR   PTSUNNY   75  68  78 CALM      29.99
QUANTICO       PTSUNNY   74  69  85 CALM      30.00S
FREDERICKSBRG* FAIR      74  73  99 CALM      29.99S
STAFFORD*      PTSUNNY   74  68  80 CALM      30.03S
WARRENTON      FAIR      79  64  59 CALM      29.99S
CULPEPER*      FAIR      78  69  74 CALM      30.00S
MANASSAS*      SUNNY     79  68  69 MISG      30.00R
LEESBURG*      FAIR      81  70  69 N10       30.01S
WINCHESTER     FAIR      77  63  61 NE3       30.02S
FRONT ROYAL*   PTSUNNY   70  68  94 CALM      30.02S
LURAY*         FAIR      68  68 100 CALM      30.03F
$$

VAZ048-049-060>072-079>083-311500-
CENTRAL AND SOUTH CENTRAL VIRGINIA

CITY           SKY/WX    TMP DP  RH WIND       PRES   REMARKS
RICHMOND       PTSUNNY   71  67  87 NE7       30.00S
CHESTERFIELD*    N/A    N/A N/A N/A MISG        N/A
PETERSBURG*    PTSUNNY   73  73  98 CALM      30.00F
HANOVER        FAIR      76  64  66 CALM      30.01S
TAPPAHANNOCK*  PTSUNNY   72  72 100 E5        30.01R
QUINTON*       CLOUDY    72  68  89 CALM      29.99F
CHARLOTTSVILLE FAIR      75  69  81 CALM      30.00S
GORDONSVILLE*  FAIR      77  69  77 E6        30.00S
ORANGE*        FAIR      77  72  83 CALM      30.02S
LOUISA*        PTSUNNY   79  72  78 CALM      29.99S
BUMPASS*       CLOUDY    72  69  89 E5        30.00S
FARMVILLE*     CLOUDY    72  72  99 CALM      30.00S
CREWE*         CLOUDY    70  70 100 CALM      30.00S
FORT PICKETT*  NOT AVBL
CHASE CITY*    CLOUDY    70  69  95 N3        30.01S
CLARKSVILLE*   CLOUDY    72  70  94 N3        29.99F
SOUTH HILL*    CLOUDY    71  69  92 N5        30.05F
LAWRENCEVILLE* CLOUDY    70  69  96 CALM      30.00S
EMPORIA*       CLOUDY    72  70  94 CALM      30.00F
$$

VAZ088>098-311500-
SOUTHEAST VIRGINIA

CITY           SKY/WX    TMP DP  RH WIND       PRES   REMARKS
NORFOLK        CLOUDY    72  68  87 NE6       29.98S
VIRGINIA BEACH CLOUDY    78  68  71 E7        29.97S
NORFOLK NAVAL  CLOUDY    72  69  90 NE9       29.99S
WEST POINT*    CLOUDY    72  70  94 NE3       30.01F
SALUDA*        CLOUDY    72  70  93 CALM      29.99F
NEWPORT NEWS   CLOUDY    74  69  85 N6        29.99S
LANGLEY AFB    CLOUDY    72  71  95 N6        29.98S
FORT EUSTIS    PTSUNNY   73  70  90 VRB6      29.97S
WILLIAMSBURG*    N/A     73  73 100 CALM      30.00S
HR EXEC AP*      N/A     72  70  94 N3        30.00S
FRANKLIN*      CLOUDY    72  67  87 N3        29.99S
US460-WAKEFLD  PTSUNNY   73  67  81 CALM      29.99F
$$

VAZ020-022-025-037-045-311500-
WEST CENTRAL AND SOUTHWEST VIRGINIA

CITY           SKY/WX    TMP DP  RH WIND       PRES   REMARKS
STAUNTON*      FAIR      71  64  78 CALM      30.06S
WAYNESBORO*    FAIR      72  64  76 NW5       30.05S
HOT SPRINGS VA FAIR      68  57  67 E9        30.13S
LYNCHBURG      FAIR      75  66  73 CALM      30.02S
DANVILLE       PTSUNNY   77  69  76 E6        30.00S
SOUTH BOSTON*  CLOUDY    70  69  95 CALM      30.01S
MARTINSVILLE   FAIR      73  66  80 CALM      30.04S
ROANOKE        FAIR      73  64  73 NE10      30.05S
BLACKSBURG     FAIR      75  64  69 E7        30.10S
DUBLIN*        FAIR      72  66  82 CALM      30.09S
MARION*        FAIR      75  63  66 NE5       30.11S
HILLSVILLE*    FAIR      70  63  79 CALM      30.09S
RICHLANDS*     FAIR      71  59  64 N3        30.09S
WISE*          FAIR      73  57  56 NE6       30.10F
ABINGDON*      FAIR      75  65  71 E3        30.06S
$$

MDZ021>025-VAZ099-100-311500-
SOUTHERN MARYLAND AND THE DELMARVA PENINSULA

CITY           SKY/WX    TMP DP  RH WIND       PRES   REMARKS
PATUXENT RIVER PTSUNNY   73  67  81 E5        29.99S
BAY BRIDGE APT MOSUNNY   73  68  83 S5        29.98F
LEONARDTOWN    CLOUDY    72  64  78 CALM      30.01S
DOVER          MOSUNNY   75  73  94 VRB3      29.97S
GEORGETOWN     PTSUNNY   74  67  78 N3        29.98S
EASTON         PTSUNNY   75  72  88 NW5       30.02S
CAMBRIDGE      SUNNY     72  64  78 CALM      29.98S
SALISBURY      CLOUDY    73  68  84 CALM      29.98S
OCEAN CITY     CLOUDY    67  65  93 E7        29.98S
WALLOPS ISLAND CLOUDY    72  69  90 E5        29.99R
ACCOMACK*      CLOUDY    72  66  83 CALM      29.99S
$$

NCZ012>017-030>032-311500-
NORTH CENTRAL AND EASTERN NORTH CAROLINA

CITY           SKY/WX    TMP DP  RH WIND       PRES   REMARKS
ROANOKE RAPIDS CLOUDY    70  70 100 CALM      29.99S
RALEIGH        CLOUDY    75  70  84 N6        29.99S
ELIZABETH CITY PTSUNNY   77  70  79 NE7       29.97S
AHOSKIE*       CLOUDY    73  68  85 N5        29.98S
EDENTON*       CLOUDY   N/A N/A N/A NE3       29.98S
CURRITUCK*     CLOUDY    74  70  86 NE7       29.99S
KILL DEVIL HLS CLOUDY    71  71 100 NE5       29.96S FOG
MANTEO         NOT AVBL
CAPE HATTERAS  HVY RAIN  72  71  97 NE7       29.96S
TARBORO*       CLOUDY    74  70  86 N5        29.98F
GOLDSBORO      MOSUNNY   76  76 100 N10       29.95R
WASHINGTON     CLOUDY    73  70  93 NE6       29.96S
GREENVILLE     CLOUDY    73  72  94 N9        29.99R
NEW BERN       PTSUNNY   77  72  84 NE7       29.96R HAZE
WILMINGTON     CLOUDY    78  71  79 N12       29.92R
$$

VAZ048-311500-
ELSEWHERE

CITY           SKY/WX    TMP DP  RH WIND       PRES   REMARKS
HARRISBURG PA  SUNNY     76  61  59 VRB5      30.00S
BALTIMORE      PTSUNNY   74  68  81 VRB3      29.98S
ANNAPOLIS      CLOUDY    73  69  87 E3        29.98F
ANDREWS AFB    CLOUDY    73  68  83 E1        29.99R
PHILADELPHIA   MOSUNNY   79  67  66 SE5       29.97S
HENDERSON NC   CLOUDY    69  67  95 CALM      30.00S
GREENSBORO     MOSUNNY   77  68  73 NE5       30.00S
ROCKY MOUNT    PTSUNNY   74  69  85 N8        29.98S
$$

VAZ100-311500-
MARINE

STATION/POSITION TIME  TEMP    WIND        PRES    WAVE   SWELL
                       AIR SEA DIR/SP/G            HT/PER HT/PER
                 (UTC) (F)     (DEG/KT/KT) (MB)    (FT/S) (FT/S)
BRANDYWINE LGT   1300   67      CALM  /  1 1015.2R
CAPE MAY NJ      1300   69 68  280/  4/  4 1014.9R
LEWES DE         1300   67 64  340/  1/  1 1015.0R
15NM E FENWICK I 1350   66 65              1015.3R   4/ 7
OCEAN-CITY-INLET 1300   67 59   90/  3/  4 1015.3R
WACHAPREAGUE VA  1300   69 73   CALM  /  2 1015.0R
THOMAS POINT MD  1400   70 69  230/  2/  2 1016.6F
GOOSES REEF MD   1300   70 70  280/  2/  2 1016.5R   0
COVE POINT MD    1300   69     330/  1/  2 1016.1R
SOLOMONS ISLAND  1300   69 68  190/  2/  3   N/A
BISHOPS HEAD MD  1300   72 72   50/  4/  5 1015.5R
PINEY POINT MD   1300          200/  1/  1   N/A
POTOMAC MD       1300   69 68   CALM  /  2 1014.5R   0
CAMBRIDGE MD     1300   72 70     CALM     1014.4R
LEWISETTA VA     1300   69 72   90/  2/  2 1015.2R
RAPPAHANNOCK LGT 1300           CALM  /  1 1016.0R
STINGRAY PT      1300   69 69  330/  2/  4 1015.8R   0
YORK RVR RNG VA  1300   70      50/  4/  5 1014.8R
YORKTOWN VA      1300   71 68  360/  3/  4 1015.1R
JAMESTOWN VA     1300   72 75  350/  4/  8   N/A     0
DOMINION TERM VA 1300   71     110/  5/  6 1015.2R
KIPTOPEKE VA     1300      69  100/  2/  3   N/A
CHES BAY BRIDGE  1300   69 70   30/  3/  4 1015.1R
CAPE HENRY VA    1300   69      30/  4/  5   N/A
CHESAPEAKE LGHT  1300   69     360/  4/  4 1016.0R
WILLOUBY STN VA  1300   69      60/  5/  6 1016.2R
CAPE HENRY BUOY  1312      70                N/A     3/ 8
1ST LANDING BUOY 1300   70 70   30/  4/  4 1015.4R   1/ 6
CAPE CHARLES BUO 1326      70                N/A     3/ 8   3/ 8
OFFSHORE WE BUOY 1321      70                N/A     5/ 8   5/14
64NM E OF VA BCH 1350   65 65  340/  6/  8 1014.8R   5/ 8   5/ 8
DUCK PIER NC     1300   66 59   60/  5/  6 1014.5R
44100 DUCK FRF   1324      68                N/A     4/ 9
44056 DUCK FRF   1311      64                N/A     3/10
OREGON INLET NC  1300   68 72   10/  6/  8 1014.4S
HATTERAS NC      1300   73 74   50/  3/  8 1014.0R
DIAMOND SHLS NC  1350   79 80  210/ 12/ 14 1013.9R   5/ 9   5/ 9
CAPE LOOKOUT C1F1C2F2C3F3C4F4C5F5C6F6C7F7C8M1C9!



USA.gov is the U.S. government's official web portal to all federal, state and local government web resources and services.